Location: Table Rock
(44.3339°N, 118.3154°W)
Time: 18:22:58
(UTC-07:00)

Daily predictions for brighter satellites

Satellite Brightness Start Highest point End
(mag) Time Altitude Azimuth Time Altitude Azimuth Time Altitude Azimuth
Cosmos 2278 3.7 19:51:22 10° SSW 19:57:02 79° ESE 20:02:45 10° NNE
H-2A R/B 3.1 20:02:21 10° SSE 20:06:07 48° ENE 20:09:57 10° N
ALOS 2.3 20:01:32 10° SSE 20:06:09 64° ENE 20:10:47 10° N
Cosmos 1980 Rocket 3.3 20:04:19 10° SSE 20:08:38 23° E 20:12:59 10° NE
Cosmos 1898 Rocket 3.7 20:05:51 10° NNW 20:11:03 54° ENE 20:16:11 10° SE
Cosmos 2369 3.8 20:06:18 10° SSW 20:11:59 89° WNW 20:17:44 10° NNE
Cosmos 2084 3.4 20:10:11 10° NW 20:14:13 87° NE 20:18:30 10° SE
Meteor 1-29 3.8 20:12:07 10° N 20:15:31 55° WNW 20:18:55 10° SSW
H-2A R/B 3.8 20:15:12 10° E 20:17:31 15° ENE 20:19:53 10° NNE
Cosmos 1626 Rocket 3.5 20:13:31 10° N 20:17:56 68° E 20:22:15 10° SSE
Tiangong 1 1.4 20:16:36 10° W 20:19:38 51° SSW 20:22:11 13° ESE
FENGYUN 3A 3.7 20:16:56 10° SSE 20:22:17 87° ENE 20:27:41 10° NNW
Cosmos 1605 Rocket 4.0 20:16:51 10° S 20:23:11 85° E 20:29:27 10° N
Cosmos 1975 2.8 20:19:15 10° S 20:23:18 65° E 20:27:23 10° NNE
Cosmos 1656 3.6 20:17:51 10° SSW 20:23:23 66° ESE 20:28:54 10° NNE
Cosmos 468 Rocket 4.2 20:19:07 10° S 20:23:59 47° ESE 20:28:54 10° NNE
Cosmos 1455 Rocket 3.7 20:19:48 10° SSW 20:24:05 61° W 20:28:25 10° N
Cosmos 220 Rocket 4.2 20:20:53 10° NNW 20:25:06 72° WSW 20:29:17 10° SSE
Lacrosse 5 rocket 2.9 20:22:27 10° WNW 20:25:36 26° SW 20:28:41 10° S
BREEZE-M DEB (TANK) 4.3 20:22:41 10° SW 20:26:46 67° SE 20:41:38 10° ENE
Cosmos 1602 Rocket 3.6 20:23:43 10° N 20:28:13 88° E 20:32:37 10° S
CZ-2D R/B 3.4 20:26:36 10° S 20:30:28 78° WSW 20:34:23 10° NNW
Cosmos 2263 Rocket 4.1 20:28:04 10° N 20:31:00 14° NE 20:33:55 10° ENE
Cosmos 1500 3.3 20:27:36 10° S 20:31:14 49° E 20:34:53 10° NNE
EO 1 Delta rocket 4.0 20:29:12 10° N 20:33:58 87° ESE 20:39:30 10° S
Cosmos 2100 Rocket 4.3 20:28:06 10° SSE 20:34:00 45° E 20:39:53 10° NNE
Cosmos 1340 3.7 20:33:28 10° N 20:36:49 29° ENE 20:38:50 18° ESE
Cosmos 1814 Rocket 4.2 20:31:41 10° S 20:36:51 52° ESE 20:41:59 10° NNE
Cosmos 2227 Rocket 3.5 20:32:02 10° NW 20:37:17 39° WSW 20:42:29 10° S
Cosmos 2322 Rocket 3.5 20:42:28 16° ESE 20:42:58 17° E 20:46:23 10° ENE
Cosmos 2061 Rocket 4.1 20:41:30 10° SSE 20:47:33 53° E 20:53:36 10° NNE
Cosmos 2297 Rocket 3.4 20:46:53 10° NW 20:52:11 42° WSW 20:57:27 10° S
Cosmos 1515 4.2 20:50:10 10° NNW 20:53:59 60° W 20:57:44 10° S
Iridium 4 Rocket 3.7 20:54:37 10° N 20:59:36 66° W 21:04:05 10° S
Cosmos 1459 Rocket 3.9 20:53:58 10° S 20:59:57 67° E 21:06:02 10° NNE
Meteor 1-21 4.4 20:54:37 10° N 21:00:21 59° ENE 21:04:33 19° SSE
Cosmos 2058 Rocket 4.0 20:59:39 26° ESE 21:00:52 30° E 21:04:48 10° NNE
Cosmos 1939 Rocket 2.9 21:00:05 22° SSE 21:02:39 65° ENE 21:06:48 10° N
Cosmos 1606 Rocket 3.8 20:59:40 17° SSE 21:02:50 47° E 21:07:07 10° NNE
Cosmos 2227 4.3 20:57:35 10° NNW 21:03:20 67° ENE 21:06:51 24° SE
Lacrosse 5 2.5 21:04:10 10° WNW 21:09:03 49° SW 21:12:11 21° SSE
Envisat 2.9 21:06:51 21° SSE 21:10:19 73° ENE 21:15:24 10° N
Cosmos 1937 Rocket 3.8 21:05:44 10° NNW 21:10:58 66° WSW 21:15:20 15° S
Cosmos 1743 2.6 21:09:40 10° S 21:13:36 88° E 21:17:32 10° N
SPOT 5 3.0 21:17:28 33° SE 21:19:26 55° ENE 21:24:05 10° N
Cosmos 990 Rocket 4.1 21:14:44 10° NNW 21:20:00 75° WSW 21:23:19 23° S
Cosmos 1726 Rocket 3.4 21:23:09 28° S 21:25:24 71° E 21:29:50 10° NNE
CZ-4 DEB 4.1 21:24:33 22° SSW 21:26:07 37° W 21:29:05 10° NNW
Cosmos 1697 Rocket 3.5 21:22:38 10° SW 21:28:09 54° WNW 21:33:42 10° NNE
RESURS DK-1 3.8 21:24:33 10° NW 21:28:19 34° WSW 21:30:45 18° SSW
ERS-1 Rocket 3.5 21:28:36 16° S 21:32:30 55° W 21:37:27 10° NNW
H-2A R/B 3.2 21:37:08 24° ENE 21:37:20 24° ENE 21:41:14 10° NNE
Terra 3.5 21:38:09 19° ENE 21:38:09 19° ENE 21:41:26 10° NNE
Cosmos 1825 Rocket 4.4 21:34:20 10° NNW 21:38:36 49° W 21:41:14 21° SSW
SL-08 R/B 4.4 21:34:38 16° S 21:39:49 81° E 21:45:59 10° N
ARGOS 3.5 21:39:15 42° ESE 21:40:25 49° ENE 21:45:36 10° N
SL-16 R/B 2.4 21:39:37 43° SE 21:40:25 46° ESE 21:45:50 10° NE
NOAA 11 4.4 21:40:39 43° ESE 21:41:54 51° ENE 21:47:11 10° N
Cosmos 836 Rocket 4.4 21:38:54 21° S 21:42:29 72° ESE 21:47:47 10° NNE
Cosmos 1802 Rocket 4.3 21:36:31 10° SSW 21:42:54 70° W 21:49:21 10° N
Cosmos 1763 Rocket 3.7 21:41:10 10° SSW 21:46:14 67° WNW 21:51:18 10° NNE
Cosmos 1842 3.2 21:43:27 10° NNW 21:47:22 75° W 21:47:42 69° SW
Cosmos 2016 Rocket 4.1 21:43:55 10° SSW 21:50:01 72° W 21:56:16 10° N
Cosmos 1953 Rocket 4.3 21:46:00 10° NNW 21:50:19 51° W 21:52:11 30° SSW
MetOp-B 4.0 21:48:43 45° SSE 21:50:28 89° WSW 21:55:52 10° NNW
Cosmos 1980 Rocket 2.8 21:46:37 10° SW 21:52:11 56° WNW 21:57:50 10° NNE
Cosmos 2360 Rocket 4.1 21:56:06 15° ENE 21:56:06 15° ENE 21:57:20 10° NE
H-2A R/B 2.4 21:52:10 44° SSW 21:53:05 55° WSW 21:57:12 10° NNW
Cosmos 1666 3.0 21:55:18 61° WSW 21:55:34 63° W 21:59:21 10° N
Tiangong 1 3.8 21:53:33 10° WSW 21:54:09 13° WSW 21:54:09 13° WSW
SPOT 1/Viking Rocket 3.5 21:55:41 60° SE 21:56:31 72° ENE 22:01:43 10° N
Cosmos 2228 2.9 21:56:52 77° NE 21:56:52 77° NE 22:00:56 10° N
Cosmos 2098 Rocket 3.9 21:53:33 16° SSW 21:59:05 79° W 22:04:35 10° N
Cosmos 1125 Rocket 3.4 21:54:11 10° NNW 21:59:25 81° WSW 22:00:25 59° S
YAOGAN 6 3.1 22:02:35 58° WNW 22:02:35 58° WNW 22:05:56 10° NNW
USA 245 4.4 22:00:15 47° SSE 22:02:17 87° ENE 22:08:36 10° NNW
Cosmos 1375 Rocket 4.4 21:58:24 10° SSW 22:04:57 75° ESE 22:11:34 10° NE
SL-19 R/B 4.0 22:02:03 10° NNE 22:07:31 75° ESE 22:08:02 69° SSE
Cosmos 841 Rocket 4.4 22:05:45 10° SW 22:10:49 48° WNW 22:15:52 10° N
USA 215 3.7 22:08:55 36° E 22:11:22 53° NNE 22:17:40 10° NW
SL-08 RB Rocket 3.8 22:16:16 75° NNE 22:16:16 75° NNE 22:20:32 10° NNW
ASTEX 1 4.2 22:11:06 10° N 22:15:56 50° WNW 22:18:01 31° SW
Cosmos 2263 Rocket 2.0 22:10:24 10° NNW 22:15:59 71° ENE 22:16:14 70° E
Cosmos 540 Rocket 3.4 22:18:56 74° NE 22:18:56 74° NE 22:23:39 10° NNE
GP-B 4.4 22:19:05 10° NNE 22:21:39 31° NNE 22:21:39 31° NNE
Cosmos 2322 Rocket 2.3 22:24:08 38° SW 22:26:19 74° WNW 22:31:58 10° NNE
Cosmos 2346 Rocket 4.3 22:21:04 10° N 22:27:19 84° E 22:27:53 74° SSE
Meteor 2-5 Rocket 3.7 22:26:49 10° N 22:32:46 84° E 22:32:49 84° E
Cosmos 372 Rocket 4.2 22:29:15 10° NNW 22:34:07 64° W 22:34:07 64° W
BREEZE-M DEB (TANK) 3.9 22:27:14 10° SW 22:37:46 73° S 22:37:46 73° S
Meteor 1-24 Rocket 4.1 22:37:28 10° N 22:42:56 60° NE 22:42:56 60° NE
Cosmos 371 Rocket 4.4 22:58:17 42° N 22:58:17 42° N 23:01:42 10° NNE
CZ-4B R/B 4.3 22:54:46 10° N 22:58:57 45° NW 22:58:57 45° NW
Cosmos 2278 Rocket 3.8 23:03:29 10° N 23:07:42 24° NE 23:07:42 24° NE
Terra 3.2 23:17:02 36° NW 23:17:02 36° NW 23:20:06 10° NNW
H-2A R/B 3.2 23:17:46 36° WNW 23:17:46 36° WNW 23:21:14 10° NNW
SL-16 R/B 3.8 23:21:21 17° WSW 23:24:43 30° NW 23:29:42 10° N
Cosmos 1844 Rocket 3.6 23:21:53 10° NNW 23:25:49 43° N 23:25:49 43° N
Cosmos 2360 Rocket 3.1 23:37:50 45° NNW 23:37:50 45° NNW 23:42:07 10° NNE
Cosmos 2034 Rocket 4.5 23:41:14 56° NNW 23:41:14 56° NNW 23:46:14 10° N
